Time,TemperatureF,DewpointF,PressureIn,WindDirection,WindDirectionDegrees,WindSpeedMPH,WindSpeedGustMPH,Humidity,HourlyPrecipIn,Conditions,Clouds,dailyrainin,SoftwareType,DateUTC
2013-02-24 00:00:00,12.8,11.2,30.00,South,180,1.0,2.0,93,0.00,,,0.12,Weather View 32 v70,2013-02-24 06:00:00,
2013-02-24 00:05:00,12.8,11.2,30.00,South,180,0.0,2.0,93,0.00,,,0.00,Weather View 32 v70,2013-02-24 06:05:00,
2013-02-24 00:10:00,13.6,12.0,30.00,SE,135,1.0,2.0,93,0.00,,,0.00,Weather View 32 v70,2013-02-24 06:10:00,
2013-02-24 00:15:00,14.3,12.6,30.00,SE,135,2.0,3.0,93,0.00,,,0.00,Weather View 32 v70,2013-02-24 06:15:00,
2013-02-24 00:20:00,14.7,13.0,30.00,ESE,112,2.0,5.0,93,0.00,,,0.00,Weather View 32 v70,2013-02-24 06:20:00,
2013-02-24 00:25:00,14.8,13.1,30.00,ESE,112,2.0,5.0,93,0.00,,,0.00,Weather View 32 v70,2013-02-24 06:25:00,
2013-02-24 00:30:00,14.7,13.0,30.00,ESE,112,1.0,5.0,93,0.00,,,0.00,Weather View 32 v70,2013-02-24 06:30:00,
2013-02-24 00:35:00,14.6,12.9,30.00,ESE,112,1.0,5.0,93,0.00,,,0.00,Weather View 32 v70,2013-02-24 06:35:00,
2013-02-24 00:40:00,14.3,12.6,30.00,SE,135,0.0,5.0,93,0.00,,,0.00,Weather View 32 v70,2013-02-24 06:40:00,
2013-02-24 00:45:00,13.8,12.2,30.01,SE,135,0.0,5.0,93,0.00,,,0.00,Weather View 32 v70,2013-02-24 06:45:00,
2013-02-24 00:50:00,13.9,12.3,30.01,SE,135,0.0,5.0,93,0.00,,,0.00,Weather View 32 v70,2013-02-24 06:50:00,
2013-02-24 00:55:00,13.9,12.3,30.00,SE,135,0.0,5.0,93,0.00,,,0.00,Weather View 32 v70,2013-02-24 06:55:00,
2013-02-24 01:00:00,13.9,12.3,30.00,SE,135,0.0,5.0,93,0.00,,,0.00,Weather View 32 v70,2013-02-24 07:00:00,
2013-02-24 01:05:00,13.5,11.9,30.00,SE,135,0.0,5.0,93,0.00,,,0.00,Weather View 32 v70,2013-02-24 07:05:00,
2013-02-24 01:10:00,12.7,11.1,30.01,SE,135,1.0,5.0,93,0.00,,,0.00,Weather View 32 v70,2013-02-24 07:10:00,
2013-02-24 01:15:00,13.1,11.5,30.01,SE,135,0.0,5.0,93,0.00,,,0.00,Weather View 32 v70,2013-02-24 07:15:00,
2013-02-24 01:20:00,13.9,12.3,30.01,SE,135,1.0,4.0,93,0.00,,,0.00,Weather View 32 v70,2013-02-24 07:20:00,
2013-02-24 01:25:00,14.5,12.8,30.01,SE,135,1.0,3.0,93,0.00,,,0.00,Weather View 32 v70,2013-02-24 07:25:00,
2013-02-24 01:30:00,14.9,13.2,30.01,SE,135,0.0,3.0,93,0.00,,,0.00,Weather View 32 v70,2013-02-24 07:30:00,
2013-02-24 01:35:00,13.7,12.1,30.02,SE,135,2.0,3.0,93,0.00,,,0.00,Weather View 32 v70,2013-02-24 07:35:00,
2013-02-24 01:40:00,13.6,12.0,30.02,SSE,157,0.0,3.0,93,0.00,,,0.00,Weather View 32 v70,2013-02-24 07:40:00,
2013-02-24 01:45:00,13.3,11.7,30.02,SSE,157,0.0,3.0,93,0.00,,,0.00,Weather View 32 v70,2013-02-24 07:45:00,
2013-02-24 01:50:00,12.9,11.3,30.02,SSE,157,0.0,3.0,93,0.00,,,0.00,Weather View 32 v70,2013-02-24 07:50:00,
2013-02-24 01:55:00,13.5,11.9,30.02,SSE,157,0.0,3.0,93,0.00,,,0.00,Weather View 32 v70,2013-02-24 07:55:00,
2013-02-24 02:00:00,14.2,12.6,30.02,SSE,157,1.0,3.0,93,0.00,,,0.00,Weather View 32 v70,2013-02-24 08:00:00,
2013-02-24 02:05:00,14.3,12.6,30.03,SSE,157,0.0,3.0,93,0.00,,,0.00,Weather View 32 v70,2013-02-24 08:05:00,
2013-02-24 02:10:00,13.4,11.8,30.03,SSE,157,0.0,3.0,93,0.00,,,0.00,Weather View 32 v70,2013-02-24 08:10:00,
2013-02-24 02:15:00,12.9,11.3,30.03,SSE,157,0.0,3.0,93,0.00,,,0.00,Weather View 32 v70,2013-02-24 08:15:00,
2013-02-24 02:20:00,12.8,11.2,30.03,SSE,157,1.0,3.0,93,0.00,,,0.00,Weather View 32 v70,2013-02-24 08:20:00,
2013-02-24 02:25:00,12.6,11.0,30.03,SSE,157,1.0,3.0,93,0.00,,,0.00,Weather View 32 v70,2013-02-24 08:25:00,
2013-02-24 02:30:00,12.5,10.9,30.03,SSE,157,0.0,2.0,93,0.00,,,0.00,Weather View 32 v70,2013-02-24 08:30:00,
2013-02-24 02:35:00,12.4,10.8,30.02,ENE,67,1.0,2.0,93,0.00,,,0.00,Weather View 32 v70,2013-02-24 08:35:00,
2013-02-24 02:40:00,12.3,10.7,30.03,ENE,67,1.0,2.0,93,0.00,,,0.00,Weather View 32 v70,2013-02-24 08:40:00,
2013-02-24 02:45:00,12.3,10.7,30.02,NE,45,2.0,2.0,93,0.00,,,0.00,Weather View 32 v70,2013-02-24 08:45:00,
2013-02-24 02:50:00,12.3,10.7,30.02,NE,45,1.0,2.0,93,0.00,,,0.00,Weather View 32 v70,2013-02-24 08:50:00,
2013-02-24 02:55:00,12.1,10.5,30.02,NE,45,0.0,2.0,93,0.00,,,0.00,Weather View 32 v70,2013-02-24 08:55:00,
2013-02-24 03:00:00,11.7,10.1,30.02,NE,45,0.0,2.0,93,0.00,,,0.00,Weather View 32 v70,2013-02-24 09:00:00,
2013-02-24 03:05:00,11.8,10.2,30.01,NE,45,0.0,2.0,93,0.00,,,0.00,Weather View 32 v70,2013-02-24 09:05:00,
2013-02-24 03:10:00,11.6,10.0,30.02,NE,45,0.0,2.0,93,0.00,,,0.00,Weather View 32 v70,2013-02-24 09:10:00,
2013-02-24 03:15:00,11.6,10.0,30.02,NE,45,0.0,2.0,93,0.00,,,0.00,Weather View 32 v70,2013-02-24 09:15:00,
2013-02-24 03:20:00,11.6,10.0,30.02,NE,45,1.0,2.0,93,0.00,,,0.00,Weather View 32 v70,2013-02-24 09:20:00,
2013-02-24 03:25:00,12.1,10.5,30.01,NE,45,0.0,2.0,93,0.00,,,0.00,Weather View 32 v70,2013-02-24 09:25:00,
2013-02-24 03:30:00,12.2,10.6,30.01,NE,45,0.0,2.0,93,0.00,,,0.00,Weather View 32 v70,2013-02-24 09:30:00,
2013-02-24 03:35:00,11.9,10.3,30.02,NE,45,0.0,2.0,93,0.00,,,0.00,Weather View 32 v70,2013-02-24 09:35:00,
2013-02-24 03:40:00,11.6,10.0,30.02,NE,45,1.0,2.0,93,0.00,,,0.00,Weather View 32 v70,2013-02-24 09:40:00,
2013-02-24 03:45:00,11.4,9.8,30.02,NE,45,1.0,2.0,93,0.00,,,0.00,Weather View 32 v70,2013-02-24 09:45:00,
2013-02-24 03:50:00,10.9,9.0,30.03,West,270,1.0,3.0,92,0.00,,,0.00,Weather View 32 v70,2013-02-24 09:50:00,
2013-02-24 03:55:00,10.6,8.7,30.03,West,270,2.0,3.0,92,0.00,,,0.00,Weather View 32 v70,2013-02-24 09:55:00,
2013-02-24 04:00:00,10.5,8.6,30.03,West,270,1.0,3.0,92,0.00,,,0.00,Weather View 32 v70,2013-02-24 10:00:00,
2013-02-24 04:05:00,10.8,8.9,30.03,West,270,0.0,3.0,92,0.00,,,0.00,Weather View 32 v70,2013-02-24 10:05:00,
2013-02-24 04:10:00,11.4,9.8,30.02,West,270,0.0,3.0,93,0.00,,,0.00,Weather View 32 v70,2013-02-24 10:10:00,
2013-02-24 04:15:00,11.6,10.0,30.03,West,270,0.0,3.0,93,0.00,,,0.00,Weather View 32 v70,2013-02-24 10:15:00,
2013-02-24 04:20:00,11.7,10.1,30.03,West,270,0.0,3.0,93,0.00,,,0.00,Weather View 32 v70,2013-02-24 10:20:00,
2013-02-24 04:25:00,11.7,10.1,30.03,West,270,0.0,3.0,93,0.00,,,0.00,Weather View 32 v70,2013-02-24 10:25:00,
2013-02-24 04:30:00,11.6,10.0,30.03,West,270,0.0,3.0,93,0.00,,,0.00,Weather View 32 v70,2013-02-24 10:30:00,
2013-02-24 04:35:00,11.2,9.6,30.03,West,270,1.0,3.0,93,0.00,,,0.00,Weather View 32 v70,2013-02-24 10:35:00,
2013-02-24 04:40:00,10.9,9.0,30.04,West,270,1.0,3.0,92,0.00,,,0.00,Weather View 32 v70,2013-02-24 10:40:00,
2013-02-24 04:45:00,10.8,8.9,30.04,West,270,2.0,3.0,92,0.00,,,0.00,Weather View 32 v70,2013-02-24 10:45:00,
2013-02-24 04:50:00,10.6,8.7,30.04,West,270,1.0,2.0,92,0.00,,,0.00,Weather View 32 v70,2013-02-24 10:50:00,
2013-02-24 04:55:00,10.3,8.4,30.04,West,270,1.0,2.0,92,0.00,,,0.00,Weather View 32 v70,2013-02-24 10:55:00,
2013-02-24 05:00:00,10.4,8.5,30.05,West,270,1.0,2.0,92,0.00,,,0.00,Weather View 32 v70,2013-02-24 11:00:00,
2013-02-24 05:05:00,10.2,8.3,30.04,NW,315,3.0,4.0,92,0.00,,,0.00,Weather View 32 v70,2013-02-24 11:05:00,
2013-02-24 05:10:00,10.1,8.2,30.05,NW,315,0.0,4.0,92,0.00,,,0.00,Weather View 32 v70,2013-02-24 11:10:00,
2013-02-24 05:15:00,10.1,8.2,30.05,NW,315,1.0,4.0,92,0.00,,,0.00,Weather View 32 v70,2013-02-24 11:15:00,
2013-02-24 05:20:00,9.8,7.9,30.05,NW,315,0.0,4.0,92,0.00,,,0.00,Weather View 32 v70,2013-02-24 11:20:00,
2013-02-24 05:25:00,9.2,7.4,30.05,NW,315,1.0,4.0,92,0.00,,,0.00,Weather View 32 v70,2013-02-24 11:25:00,
2013-02-24 05:30:00,8.9,7.1,30.05,NNW,337,0.0,4.0,92,0.00,,,0.00,Weather View 32 v70,2013-02-24 11:30:00,
2013-02-24 05:35:00,8.7,6.9,30.06,NNW,337,0.0,4.0,92,0.00,,,0.00,Weather View 32 v70,2013-02-24 11:35:00,
2013-02-24 05:40:00,8.6,6.8,30.06,NNW,337,0.0,4.0,92,0.00,,,0.00,Weather View 32 v70,2013-02-24 11:40:00,
2013-02-24 05:45:00,8.4,6.6,30.06,NNW,337,2.0,4.0,92,0.00,,,0.00,Weather View 32 v70,2013-02-24 11:45:00,
2013-02-24 05:50:00,8.4,6.6,30.06,NNW,337,0.0,4.0,92,0.00,,,0.00,Weather View 32 v70,2013-02-24 11:50:00,
2013-02-24 05:56:00,8.5,6.7,30.06,NNW,337,0.0,4.0,92,0.00,,,0.00,Weather View 32 v70,2013-02-24 11:56:00,
2013-02-24 06:01:00,8.6,6.8,30.06,NNW,337,0.0,4.0,92,0.00,,,0.00,Weather View 32 v70,2013-02-24 12:01:00,
2013-02-24 06:06:00,8.6,6.8,30.06,NNW,337,0.0,4.0,92,0.00,,,0.00,Weather View 32 v70,2013-02-24 12:06:00,
2013-02-24 06:11:00,8.7,6.9,30.06,NNW,337,0.0,2.0,92,0.00,,,0.00,Weather View 32 v70,2013-02-24 12:11:00,
2013-02-24 06:16:00,8.7,6.9,30.06,NNW,337,0.0,2.0,92,0.00,,,0.00,Weather View 32 v70,2013-02-24 12:16:00,
2013-02-24 06:21:00,8.6,6.8,30.06,NNW,337,0.0,2.0,92,0.00,,,0.00,Weather View 32 v70,2013-02-24 12:21:00,
2013-02-24 06:26:00,8.6,6.8,30.07,NNW,337,0.0,2.0,92,0.00,,,0.00,Weather View 32 v70,2013-02-24 12:26:00,
2013-02-24 06:31:00,8.6,6.8,30.06,NNW,337,0.0,2.0,92,0.00,,,0.00,Weather View 32 v70,2013-02-24 12:31:00,
2013-02-24 06:36:00,8.7,6.9,30.06,NNW,337,0.0,2.0,92,0.00,,,0.00,Weather View 32 v70,2013-02-24 12:36:00,
2013-02-24 06:41:00,8.7,6.9,30.06,NNW,337,0.0,2.0,92,0.00,,,0.00,Weather View 32 v70,2013-02-24 12:41:00,
2013-02-24 06:46:00,8.4,6.6,30.07,NNW,337,0.0,2.0,92,0.00,,,0.00,Weather View 32 v70,2013-02-24 12:46:00,
2013-02-24 06:51:00,8.2,6.4,30.07,NNW,337,0.0,1.0,92,0.00,,,0.00,Weather View 32 v70,2013-02-24 12:51:00,
2013-02-24 06:56:00,7.8,6.0,30.07,NNW,337,0.0,1.0,92,0.00,,,0.00,Weather View 32 v70,2013-02-24 12:56:00,
2013-02-24 07:01:00,7.6,5.8,30.07,NNW,337,0.0,1.0,92,0.00,,,0.00,Weather View 32 v70,2013-02-24 13:01:00,
2013-02-24 07:06:00,7.6,5.8,30.07,NNW,337,0.0,1.0,92,0.00,,,0.00,Weather View 32 v70,2013-02-24 13:06:00,
2013-02-24 07:11:00,7.3,5.5,30.08,NNW,337,0.0,1.0,92,0.00,,,0.00,Weather View 32 v70,2013-02-24 13:11:00,
2013-02-24 07:16:00,6.8,5.0,30.08,NNW,337,0.0,1.0,92,0.00,,,0.00,Weather View 32 v70,2013-02-24 13:16:00,
2013-02-24 07:21:00,6.5,4.7,30.08,NNW,337,0.0,1.0,92,0.00,,,0.00,Weather View 32 v70,2013-02-24 13:21:00,
2013-02-24 07:26:00,6.2,4.4,30.08,NNW,337,1.0,1.0,92,0.00,,,0.00,Weather View 32 v70,2013-02-24 13:26:00,
2013-02-24 07:31:00,6.2,4.4,30.08,NNW,337,0.0,1.0,92,0.00,,,0.00,Weather View 32 v70,2013-02-24 13:31:00,
2013-02-24 07:36:00,6.1,4.3,30.08,NNW,337,1.0,1.0,92,0.00,,,0.00,Weather View 32 v70,2013-02-24 13:36:00,
2013-02-24 07:41:00,5.8,4.0,30.08,NNW,337,0.0,1.0,92,0.00,,,0.00,Weather View 32 v70,2013-02-24 13:41:00,
2013-02-24 07:46:00,5.9,4.1,30.09,NNW,337,0.0,1.0,92,0.00,,,0.00,Weather View 32 v70,2013-02-24 13:46:00,
2013-02-24 07:51:00,6.1,4.3,30.09,NNW,337,0.0,1.0,92,0.00,,,0.00,Weather View 32 v70,2013-02-24 13:51:00,
2013-02-24 07:56:00,6.2,4.4,30.09,NNW,337,1.0,2.0,92,0.00,,,0.00,Weather View 32 v70,2013-02-24 13:56:00,
2013-02-24 08:01:00,6.4,4.6,30.10,NNW,337,2.0,2.0,92,0.00,,,0.00,Weather View 32 v70,2013-02-24 14:01:00,
2013-02-24 08:06:00,6.5,4.7,30.10,NNW,337,1.0,2.0,92,0.00,,,0.00,Weather View 32 v70,2013-02-24 14:06:00,
2013-02-24 08:11:00,6.9,5.1,30.09,NNW,337,1.0,2.0,92,0.00,,,0.00,Weather View 32 v70,2013-02-24 14:11:00,
2013-02-24 08:16:00,6.8,5.0,30.09,NNW,337,0.0,2.0,92,0.00,,,0.00,Weather View 32 v70,2013-02-24 14:16:00,
2013-02-24 08:21:00,6.7,4.9,30.10,NNW,337,0.0,2.0,92,0.00,,,0.00,Weather View 32 v70,2013-02-24 14:21:00,
2013-02-24 08:26:00,6.9,5.1,30.10,NNW,337,0.0,2.0,92,0.00,,,0.00,Weather View 32 v70,2013-02-24 14:26:00,
2013-02-24 08:31:00,7.4,5.6,30.10,NNW,337,2.0,2.0,92,0.00,,,0.00,Weather View 32 v70,2013-02-24 14:31:00,
2013-02-24 08:36:00,7.2,5.4,30.10,NNW,337,1.0,2.0,92,0.00,,,0.00,Weather View 32 v70,2013-02-24 14:36:00,
2013-02-24 08:41:00,7.4,5.6,30.11,NNW,337,0.0,2.0,92,0.00,,,0.00,Weather View 32 v70,2013-02-24 14:41:00,
2013-02-24 08:46:00,7.9,6.1,30.11,NNW,337,0.0,2.0,92,0.00,,,0.00,Weather View 32 v70,2013-02-24 14:46:00,
2013-02-24 08:51:00,8.4,6.6,30.12,NNW,337,0.0,2.0,92,0.00,,,0.00,Weather View 32 v70,2013-02-24 14:51:00,
2013-02-24 08:56:00,8.8,7.0,30.12,NNW,337,2.0,2.0,92,0.00,,,0.00,Weather View 32 v70,2013-02-24 14:56:00,
2013-02-24 09:01:00,9.2,7.4,30.12,NNW,337,2.0,2.0,92,0.00,,,0.00,Weather View 32 v70,2013-02-24 15:01:00,
2013-02-24 09:06:00,9.8,7.9,30.12,NNW,337,0.0,2.0,92,0.00,,,0.00,Weather View 32 v70,2013-02-24 15:06:00,
2013-02-24 09:11:00,10.6,8.7,30.12,NNW,337,1.0,2.0,92,0.00,,,0.00,Weather View 32 v70,2013-02-24 15:11:00,
2013-02-24 09:16:00,10.9,9.0,30.11,NNW,337,1.0,2.0,92,0.00,,,0.00,Weather View 32 v70,2013-02-24 15:16:00,
2013-02-24 09:21:00,11.2,9.6,30.11,NNW,337,2.0,2.0,93,0.00,,,0.00,Weather View 32 v70,2013-02-24 15:21:00,
2013-02-24 09:26:00,11.2,9.6,30.12,NNW,337,1.0,2.0,93,0.00,,,0.00,Weather View 32 v70,2013-02-24 15:26:00,
2013-02-24 09:31:00,11.6,10.0,30.12,NNW,337,2.0,2.0,93,0.00,,,0.00,Weather View 32 v70,2013-02-24 15:31:00,
2013-02-24 09:36:00,11.9,10.3,30.12,NW,315,1.0,2.0,93,0.00,,,0.00,Weather View 32 v70,2013-02-24 15:36:00,
2013-02-24 09:41:00,12.2,10.6,30.12,NW,315,1.0,3.0,93,0.00,,,0.00,Weather View 32 v70,2013-02-24 15:41:00,
2013-02-24 09:46:00,12.6,11.0,30.12,NW,315,2.0,3.0,93,0.00,,,0.00,Weather View 32 v70,2013-02-24 15:46:00,
2013-02-24 09:51:00,12.9,11.3,30.12,NW,315,1.0,3.0,93,0.00,,,0.00,Weather View 32 v70,2013-02-24 15:51:00,
2013-02-24 09:56:00,13.1,11.5,30.13,NW,315,2.0,3.0,93,0.00,,,0.00,Weather View 32 v70,2013-02-24 15:56:00,
2013-02-24 10:01:00,13.4,11.8,30.13,NW,315,2.0,3.0,93,0.00,,,0.00,Weather View 32 v70,2013-02-24 16:01:00,
2013-02-24 10:06:00,13.6,12.0,30.13,NW,315,2.0,4.0,93,0.00,,,0.00,Weather View 32 v70,2013-02-24 16:06:00,
2013-02-24 10:11:00,13.6,12.0,30.13,NW,315,2.0,4.0,93,0.00,,,0.00,Weather View 32 v70,2013-02-24 16:11:00,
2013-02-24 10:16:00,13.8,12.2,30.13,NW,315,2.0,4.0,93,0.00,,,0.00,Weather View 32 v70,2013-02-24 16:16:00,
2013-02-24 10:21:00,13.9,12.3,30.13,NW,315,2.0,4.0,93,0.00,,,0.00,Weather View 32 v70,2013-02-24 16:21:00,
2013-02-24 10:26:00,14.5,12.8,30.13,NW,315,2.0,4.0,93,0.00,,,0.00,Weather View 32 v70,2013-02-24 16:26:00,
2013-02-24 10:31:00,15.2,13.5,30.14,NW,315,1.0,4.0,93,0.00,,,0.00,Weather View 32 v70,2013-02-24 16:31:00,
2013-02-24 10:36:00,15.7,14.0,30.14,NW,315,1.0,4.0,93,0.00,,,0.00,Weather View 32 v70,2013-02-24 16:36:00,
2013-02-24 10:41:00,16.1,14.4,30.15,NW,315,1.0,4.0,93,0.00,,,0.00,Weather View 32 v70,2013-02-24 16:41:00,
2013-02-24 10:46:00,16.3,14.6,30.15,NW,315,4.0,4.0,93,0.00,,,0.00,Weather View 32 v70,2013-02-24 16:46:00,
2013-02-24 10:51:00,16.2,14.5,30.14,NW,315,4.0,5.0,93,0.00,,,0.00,Weather View 32 v70,2013-02-24 16:51:00,
2013-02-24 10:56:00,16.2,14.5,30.15,NW,315,2.0,5.0,93,0.00,,,0.00,Weather View 32 v70,2013-02-24 16:56:00,
2013-02-24 11:01:00,16.2,14.5,30.15,NW,315,4.0,5.0,93,0.00,,,0.00,Weather View 32 v70,2013-02-24 17:01:00,
2013-02-24 11:06:00,16.3,14.6,30.15,NW,315,2.0,5.0,93,0.00,,,0.00,Weather View 32 v70,2013-02-24 17:06:00,
2013-02-24 11:11:00,16.4,14.7,30.15,NW,315,1.0,5.0,93,0.00,,,0.00,Weather View 32 v70,2013-02-24 17:11:00,
2013-02-24 11:16:00,16.7,15.0,30.15,NW,315,2.0,5.0,93,0.00,,,0.00,Weather View 32 v70,2013-02-24 17:16:00,
2013-02-24 11:21:00,17.1,15.4,30.14,NW,315,0.0,5.0,93,0.00,,,0.00,Weather View 32 v70,2013-02-24 17:21:00,
2013-02-24 11:26:00,17.2,15.5,30.15,NW,315,2.0,5.0,93,0.00,,,0.00,Weather View 32 v70,2013-02-24 17:26:00,
2013-02-24 11:31:00,17.2,15.5,30.15,NW,315,2.0,5.0,93,0.00,,,0.00,Weather View 32 v70,2013-02-24 17:31:00,
2013-02-24 11:36:00,17.5,15.8,30.14,NW,315,2.0,5.0,93,0.00,,,0.00,Weather View 32 v70,2013-02-24 17:36:00,
2013-02-24 11:41:00,17.7,16.0,30.14,NW,315,2.0,5.0,93,0.00,,,0.00,Weather View 32 v70,2013-02-24 17:41:00,
2013-02-24 11:46:00,17.7,16.0,30.15,NW,315,1.0,5.0,93,0.00,,,0.00,Weather View 32 v70,2013-02-24 17:46:00,
2013-02-24 11:51:00,17.7,16.0,30.15,NW,315,2.0,5.0,93,0.00,,,0.00,Weather View 32 v70,2013-02-24 17:51:00,
2013-02-24 11:56:00,17.8,16.1,30.15,NW,315,1.0,5.0,93,0.00,,,0.00,Weather View 32 v70,2013-02-24 17:56:00,
2013-02-24 12:01:00,18.2,16.5,30.15,NW,315,2.0,5.0,93,0.00,,,0.00,Weather View 32 v70,2013-02-24 18:01:00,
2013-02-24 12:06:00,18.5,16.8,30.15,NW,315,1.0,5.0,93,0.00,,,0.00,Weather View 32 v70,2013-02-24 18:06:00,
2013-02-24 12:11:00,18.8,17.1,30.15,NW,315,5.0,5.0,93,0.00,,,0.00,Weather View 32 v70,2013-02-24 18:11:00,
2013-02-24 12:16:00,18.9,17.2,30.14,NW,315,3.0,6.0,93,0.00,,,0.00,Weather View 32 v70,2013-02-24 18:16:00,
2013-02-24 12:21:00,18.9,17.2,30.15,NW,315,5.0,7.0,93,0.00,,,0.00,Weather View 32 v70,2013-02-24 18:21:00,
2013-02-24 12:26:00,18.9,17.2,30.14,NW,315,6.0,7.0,93,0.00,,,0.00,Weather View 32 v70,2013-02-24 18:26:00,
2013-02-24 12:31:00,18.9,17.2,30.15,NW,315,4.0,7.0,93,0.00,,,0.00,Weather View 32 v70,2013-02-24 18:31:00,
2013-02-24 12:36:00,19.1,17.4,30.14,NW,315,3.0,7.0,93,0.00,,,0.00,Weather View 32 v70,2013-02-24 18:36:00,
2013-02-24 12:41:00,19.2,17.5,30.14,NW,315,4.0,7.0,93,0.00,,,0.00,Weather View 32 v70,2013-02-24 18:41:00,
2013-02-24 12:46:00,19.5,17.8,30.14,NW,315,5.0,7.0,93,0.00,,,0.00,Weather View 32 v70,2013-02-24 18:46:00,
2013-02-24 12:51:00,19.8,18.1,30.14,NW,315,3.0,7.0,93,0.00,,,0.00,Weather View 32 v70,2013-02-24 18:51:00,
2013-02-24 12:56:00,19.9,18.2,30.14,NW,315,2.0,7.0,93,0.00,,,0.00,Weather View 32 v70,2013-02-24 18:56:00,
2013-02-24 13:01:00,20.1,18.4,30.14,NW,315,3.0,7.0,93,0.00,,,0.00,Weather View 32 v70,2013-02-24 19:01:00,
2013-02-24 13:06:00,20.3,18.6,30.14,NW,315,3.0,7.0,93,0.00,,,0.00,Weather View 32 v70,2013-02-24 19:06:00,
2013-02-24 13:11:00,20.3,18.4,30.14,NW,315,5.0,7.0,92,0.01,,,0.00,Weather View 32 v70,2013-02-24 19:11:00,
2013-02-24 13:16:00,20.6,18.6,30.14,NW,315,3.0,7.0,92,0.00,,,0.00,Weather View 32 v70,2013-02-24 19:16:00,
2013-02-24 13:21:00,20.6,18.4,30.14,WNW,292,4.0,7.0,91,0.00,,,0.00,Weather View 32 v70,2013-02-24 19:21:00,
2013-02-24 13:27:00,20.5,18.8,30.14,NW,315,4.0,7.0,93,0.00,,,0.00,Weather View 32 v70,2013-02-24 19:27:00,
2013-02-24 13:32:00,20.4,18.7,30.14,NW,315,3.0,7.0,93,0.00,,,0.00,Weather View 32 v70,2013-02-24 19:32:00,
2013-02-24 13:37:00,20.5,18.8,30.14,NW,315,2.0,7.0,93,0.00,,,0.00,Weather View 32 v70,2013-02-24 19:37:00,
2013-02-24 13:42:00,20.5,18.8,30.14,NW,315,4.0,7.0,93,0.00,,,0.00,Weather View 32 v70,2013-02-24 19:42:00,
2013-02-24 13:47:00,20.6,18.9,30.14,NW,315,4.0,7.0,93,0.00,,,0.00,Weather View 32 v70,2013-02-24 19:47:00,
2013-02-24 13:52:00,20.6,18.6,30.13,NW,315,4.0,7.0,92,0.00,,,0.00,Weather View 32 v70,2013-02-24 19:52:00,
2013-02-24 13:57:00,20.5,18.8,30.13,WNW,292,6.0,7.0,93,0.00,,,0.00,Weather View 32 v70,2013-02-24 19:57:00,
2013-02-24 14:02:00,20.4,18.4,30.13,NW,315,3.0,7.0,92,0.00,,,0.00,Weather View 32 v70,2013-02-24 20:02:00,
2013-02-24 14:07:00,20.3,18.6,30.12,NW,315,7.0,7.0,93,0.00,,,0.00,Weather View 32 v70,2013-02-24 20:07:00,
2013-02-24 14:12:00,20.4,18.7,30.13,WNW,292,2.0,7.0,93,0.00,,,0.00,Weather View 32 v70,2013-02-24 20:12:00,
2013-02-24 14:17:00,20.5,18.8,30.13,WNW,292,4.0,7.0,93,0.00,,,0.00,Weather View 32 v70,2013-02-24 20:17:00,
2013-02-24 14:22:00,20.6,18.9,30.13,NW,315,6.0,9.0,93,0.00,,,0.00,Weather View 32 v70,2013-02-24 20:22:00,
2013-02-24 14:27:00,20.8,19.1,30.13,WNW,292,4.0,9.0,93,0.00,,,0.00,Weather View 32 v70,2013-02-24 20:27:00,
2013-02-24 14:32:00,20.8,19.1,30.13,WNW,292,1.0,9.0,93,0.00,,,0.00,Weather View 32 v70,2013-02-24 20:32:00,
2013-02-24 14:37:00,20.9,19.2,30.13,NW,315,6.0,9.0,93,0.00,,,0.00,Weather View 32 v70,2013-02-24 20:37:00,
2013-02-24 14:42:00,21.1,19.1,30.13,NW,315,3.0,9.0,92,0.00,,,0.00,Weather View 32 v70,2013-02-24 20:42:00,
2013-02-24 14:47:00,21.1,19.1,30.13,NW,315,2.0,9.0,92,0.00,,,0.00,Weather View 32 v70,2013-02-24 20:47:00,
2013-02-24 14:52:00,21.5,19.8,30.12,WNW,292,5.0,9.0,93,0.00,,,0.00,Weather View 32 v70,2013-02-24 20:52:00,
2013-02-24 14:57:00,21.7,19.7,30.13,West,270,2.0,9.0,92,0.00,,,0.00,Weather View 32 v70,2013-02-24 20:57:00,
2013-02-24 15:02:00,21.7,19.7,30.12,NW,315,4.0,9.0,92,0.00,,,0.00,Weather View 32 v70,2013-02-24 21:02:00,
2013-02-24 15:07:00,21.6,19.6,30.12,NW,315,7.0,9.0,92,0.00,,,0.00,Weather View 32 v70,2013-02-24 21:07:00,
2013-02-24 15:12:00,21.4,19.7,30.13,NW,315,4.0,9.0,93,0.00,,,0.00,Weather View 32 v70,2013-02-24 21:12:00,
2013-02-24 15:17:00,21.6,19.9,30.12,West,270,3.0,9.0,93,0.00,,,0.00,Weather View 32 v70,2013-02-24 21:17:00,
2013-02-24 15:22:00,21.8,20.1,30.12,WNW,292,4.0,9.0,93,0.00,,,0.00,Weather View 32 v70,2013-02-24 21:22:00,
2013-02-24 15:27:00,21.8,20.1,30.12,NW,315,4.0,9.0,93,0.00,,,0.00,Weather View 32 v70,2013-02-24 21:27:00,
2013-02-24 15:32:00,21.8,20.1,30.13,WSW,247,2.0,9.0,93,0.00,,,0.00,Weather View 32 v70,2013-02-24 21:32:00,
2013-02-24 15:37:00,21.9,20.2,30.13,NW,315,2.0,9.0,93,0.00,,,0.00,Weather View 32 v70,2013-02-24 21:37:00,
2013-02-24 15:42:00,21.9,20.2,30.13,WNW,292,3.0,9.0,93,0.00,,,0.00,Weather View 32 v70,2013-02-24 21:42:00,
2013-02-24 15:47:00,21.9,20.2,30.13,WNW,292,3.0,9.0,93,0.00,,,0.00,Weather View 32 v70,2013-02-24 21:47:00,
2013-02-24 15:52:00,22.3,20.6,30.13,NW,315,2.0,9.0,93,0.00,,,0.00,Weather View 32 v70,2013-02-24 21:52:00,
2013-02-24 15:57:00,22.3,20.6,30.13,WNW,292,3.0,9.0,93,0.00,,,0.00,Weather View 32 v70,2013-02-24 21:57:00,
2013-02-24 16:02:00,22.4,20.7,30.13,West,270,1.0,9.0,93,0.00,,,0.00,Weather View 32 v70,2013-02-24 22:02:00,
2013-02-24 16:07:00,22.1,20.4,30.13,NW,315,4.0,9.0,93,0.00,,,0.00,Weather View 32 v70,2013-02-24 22:07:00,
2013-02-24 16:12:00,21.9,20.2,30.13,NW,315,7.0,8.0,93,0.00,,,0.00,Weather View 32 v70,2013-02-24 22:12:00,
2013-02-24 16:17:00,21.8,20.1,30.13,NW,315,6.0,8.0,93,0.00,,,0.00,Weather View 32 v70,2013-02-24 22:17:00,
2013-02-24 16:22:00,21.5,19.8,30.13,West,270,2.0,9.0,93,0.00,,,0.00,Weather View 32 v70,2013-02-24 22:22:00,
2013-02-24 16:27:00,21.4,19.7,30.14,NW,315,7.0,9.0,93,0.00,,,0.00,Weather View 32 v70,2013-02-24 22:27:00,
2013-02-24 16:32:00,21.4,19.7,30.14,NW,315,4.0,9.0,93,0.00,,,0.00,Weather View 32 v70,2013-02-24 22:32:00,
2013-02-24 16:37:00,21.3,19.6,30.14,West,270,2.0,9.0,93,0.00,,,0.00,Weather View 32 v70,2013-02-24 22:37:00,
2013-02-24 16:42:00,21.2,19.5,30.14,NW,315,3.0,9.0,93,0.00,,,0.00,Weather View 32 v70,2013-02-24 22:42:00,
2013-02-24 16:47:00,21.2,19.5,30.14,NW,315,5.0,9.0,93,0.00,,,0.00,Weather View 32 v70,2013-02-24 22:47:00,
2013-02-24 16:52:00,21.1,19.4,30.14,NW,315,4.0,9.0,93,0.00,,,0.00,Weather View 32 v70,2013-02-24 22:52:00,
2013-02-24 16:57:00,21.1,19.4,30.14,NW,315,2.0,9.0,93,0.00,,,0.00,Weather View 32 v70,2013-02-24 22:57:00,
2013-02-24 17:02:00,21.1,19.4,30.14,WNW,292,2.0,9.0,93,0.00,,,0.00,Weather View 32 v70,2013-02-24 23:02:00,
2013-02-24 17:07:00,21.1,19.4,30.15,West,270,4.0,9.0,93,0.00,,,0.00,Weather View 32 v70,2013-02-24 23:07:00,
2013-02-24 17:12:00,21.1,19.4,30.15,West,270,2.0,9.0,93,0.00,,,0.00,Weather View 32 v70,2013-02-24 23:12:00,
2013-02-24 17:17:00,21.1,19.4,30.15,WNW,292,2.0,9.0,93,0.00,,,0.00,Weather View 32 v70,2013-02-24 23:17:00,
2013-02-24 17:22:00,21.2,19.5,30.15,WNW,292,2.0,9.0,93,0.00,,,0.00,Weather View 32 v70,2013-02-24 23:22:00,
2013-02-24 17:27:00,21.1,19.4,30.16,West,270,1.0,8.0,93,0.00,,,0.00,Weather View 32 v70,2013-02-24 23:27:00,
2013-02-24 17:32:00,21.1,19.4,30.16,WNW,292,3.0,7.0,93,0.00,,,0.00,Weather View 32 v70,2013-02-24 23:32:00,
2013-02-24 17:38:00,21.1,19.4,30.16,West,270,3.0,7.0,93,0.00,,,0.00,Weather View 32 v70,2013-02-24 23:38:00,
2013-02-24 17:43:00,21.1,19.4,30.16,WNW,292,4.0,6.0,93,0.00,,,0.00,Weather View 32 v70,2013-02-24 23:43:00,
2013-02-24 17:48:00,21.1,19.4,30.16,WNW,292,5.0,6.0,93,0.00,,,0.00,Weather View 32 v70,2013-02-24 23:48:00,
2013-02-24 17:53:00,21.1,19.4,30.16,WNW,292,5.0,7.0,93,0.00,,,0.00,Weather View 32 v70,2013-02-24 23:53:00,
2013-02-24 17:58:00,21.0,19.3,30.16,WNW,292,4.0,7.0,93,0.00,,,0.00,Weather View 32 v70,2013-02-24 23:58:00,
2013-02-24 18:03:00,21.0,19.3,30.17,WNW,292,6.0,8.0,93,0.00,,,0.00,Weather View 32 v70,2013-02-25 00:03:00,
2013-02-24 18:08:00,20.9,19.2,30.17,WNW,292,4.0,8.0,93,0.00,,,0.00,Weather View 32 v70,2013-02-25 00:08:00,
2013-02-24 18:13:00,20.9,19.2,30.16,WNW,292,4.0,8.0,93,0.00,,,0.00,Weather View 32 v70,2013-02-25 00:13:00,
2013-02-24 18:18:00,20.9,19.2,30.16,NW,315,6.0,8.0,93,0.00,,,0.00,Weather View 32 v70,2013-02-25 00:18:00,
2013-02-24 18:23:00,20.9,19.2,30.17,WNW,292,4.0,8.0,93,0.00,,,0.00,Weather View 32 v70,2013-02-25 00:23:00,
2013-02-24 18:28:00,20.9,19.2,30.16,NW,315,6.0,8.0,93,0.00,,,0.00,Weather View 32 v70,2013-02-25 00:28:00,
2013-02-24 18:33:00,21.1,19.4,30.17,NW,315,3.0,8.0,93,0.00,,,0.00,Weather View 32 v70,2013-02-25 00:33:00,
2013-02-24 18:38:00,21.3,19.6,30.17,WNW,292,6.0,8.0,93,0.00,,,0.00,Weather View 32 v70,2013-02-25 00:38:00,
2013-02-24 18:43:00,21.3,19.6,30.17,WNW,292,4.0,8.0,93,0.00,,,0.00,Weather View 32 v70,2013-02-25 00:43:00,
2013-02-24 18:48:00,21.4,19.7,30.16,NW,315,9.0,9.0,93,0.00,,,0.00,Weather View 32 v70,2013-02-25 00:48:00,
2013-02-24 18:53:00,21.3,19.6,30.17,NW,315,7.0,9.0,93,0.00,,,0.00,Weather View 32 v70,2013-02-25 00:53:00,
2013-02-24 18:58:00,21.3,19.6,30.17,WNW,292,7.0,9.0,93,0.00,,,0.00,Weather View 32 v70,2013-02-25 00:58:00,
2013-02-24 19:03:00,21.3,19.6,30.18,NW,315,7.0,9.0,93,0.00,,,0.00,Weather View 32 v70,2013-02-25 01:03:00,
2013-02-24 19:08:00,21.3,19.6,30.18,West,270,4.0,9.0,93,0.00,,,0.00,Weather View 32 v70,2013-02-25 01:08:00,
2013-02-24 19:13:00,21.2,19.5,30.18,WNW,292,4.0,9.0,93,0.00,,,0.00,Weather View 32 v70,2013-02-25 01:13:00,
2013-02-24 19:18:00,21.1,19.4,30.19,NW,315,2.0,9.0,93,0.00,,,0.00,Weather View 32 v70,2013-02-25 01:18:00,
2013-02-24 19:23:00,21.1,19.4,30.19,West,270,2.0,9.0,93,0.00,,,0.00,Weather View 32 v70,2013-02-25 01:23:00,
2013-02-24 19:28:00,21.1,19.4,30.19,West,270,2.0,9.0,93,0.00,,,0.00,Weather View 32 v70,2013-02-25 01:28:00,
2013-02-24 19:33:00,21.1,19.4,30.20,WSW,247,2.0,9.0,93,0.00,,,0.00,Weather View 32 v70,2013-02-25 01:33:00,
2013-02-24 19:38:00,21.1,19.4,30.20,WSW,247,0.0,9.0,93,0.00,,,0.00,Weather View 32 v70,2013-02-25 01:38:00,
2013-02-24 19:43:00,21.2,19.5,30.20,WSW,247,1.0,9.0,93,0.00,,,0.00,Weather View 32 v70,2013-02-25 01:43:00,
2013-02-24 19:48:00,21.2,19.5,30.20,WSW,247,1.0,9.0,93,0.00,,,0.00,Weather View 32 v70,2013-02-25 01:48:00,
2013-02-24 19:53:00,21.2,19.5,30.20,WSW,247,1.0,9.0,93,0.00,,,0.00,Weather View 32 v70,2013-02-25 01:53:00,
2013-02-24 19:58:00,21.2,19.5,30.20,WSW,247,1.0,9.0,93,0.00,,,0.00,Weather View 32 v70,2013-02-25 01:58:00,
2013-02-24 20:03:00,21.2,19.5,30.20,WSW,247,2.0,9.0,93,0.00,,,0.00,Weather View 32 v70,2013-02-25 02:03:00,
2013-02-24 20:08:00,21.2,19.5,30.20,West,270,1.0,9.0,93,0.00,,,0.00,Weather View 32 v70,2013-02-25 02:08:00,
2013-02-24 20:13:00,21.3,19.6,30.20,West,270,3.0,6.0,93,0.00,,,0.00,Weather View 32 v70,2013-02-25 02:13:00,
2013-02-24 20:18:00,21.3,19.6,30.20,WNW,292,3.0,6.0,93,0.00,,,0.00,Weather View 32 v70,2013-02-25 02:18:00,
2013-02-24 20:23:00,21.4,19.7,30.19,West,270,2.0,6.0,93,0.00,,,0.00,Weather View 32 v70,2013-02-25 02:23:00,
2013-02-24 20:28:00,21.5,19.8,30.19,WNW,292,3.0,7.0,93,0.12,,,0.00,Weather View 32 v70,2013-02-25 02:28:00,
2013-02-24 20:33:00,21.5,19.8,30.19,WNW,292,6.0,9.0,93,0.12,,,0.00,Weather View 32 v70,2013-02-25 02:33:00,
2013-02-24 20:39:00,21.6,19.9,30.20,WNW,292,7.0,9.0,93,0.00,,,0.00,Weather View 32 v70,2013-02-25 02:39:00,
2013-02-24 20:44:00,21.6,19.9,30.20,WNW,292,2.0,9.0,93,0.00,,,0.00,Weather View 32 v70,2013-02-25 02:44:00,
2013-02-24 20:49:00,21.7,20.0,30.21,West,270,2.0,9.0,93,0.00,,,0.00,Weather View 32 v70,2013-02-25 02:49:00,
2013-02-24 20:54:00,21.8,20.1,30.21,WNW,292,3.0,9.0,93,0.00,,,0.00,Weather View 32 v70,2013-02-25 02:54:00,
2013-02-24 20:59:00,21.8,20.1,30.21,West,270,3.0,9.0,93,0.00,,,0.00,Weather View 32 v70,2013-02-25 02:59:00,
2013-02-24 21:04:00,21.9,20.2,30.21,West,270,2.0,9.0,93,0.00,,,0.00,Weather View 32 v70,2013-02-25 03:04:00,
2013-02-24 21:09:00,21.9,20.2,30.21,West,270,3.0,9.0,93,0.00,,,0.00,Weather View 32 v70,2013-02-25 03:09:00,
2013-02-24 21:14:00,21.9,20.2,30.21,West,270,3.0,9.0,93,0.00,,,0.00,Weather View 32 v70,2013-02-25 03:14:00,
2013-02-24 21:19:00,21.9,20.2,30.21,WNW,292,2.0,9.0,93,0.00,,,0.00,Weather View 32 v70,2013-02-25 03:19:00,
2013-02-24 21:24:00,21.9,20.2,30.21,WNW,292,2.0,9.0,93,0.00,,,0.00,Weather View 32 v70,2013-02-25 03:24:00,
2013-02-24 21:29:00,21.9,20.2,30.21,WNW,292,1.0,9.0,93,0.00,,,0.00,Weather View 32 v70,2013-02-25 03:29:00,
2013-02-24 21:34:00,21.9,20.2,30.21,WNW,292,1.0,8.0,93,0.00,,,0.00,Weather View 32 v70,2013-02-25 03:34:00,
2013-02-24 21:39:00,21.9,20.2,30.21,West,270,2.0,7.0,93,0.00,,,0.00,Weather View 32 v70,2013-02-25 03:39:00,
2013-02-24 21:44:00,21.9,20.2,30.21,West,270,2.0,6.0,93,0.00,,,0.00,Weather View 32 v70,2013-02-25 03:44:00,
2013-02-24 21:49:00,21.9,20.2,30.21,West,270,1.0,6.0,93,0.00,,,0.00,Weather View 32 v70,2013-02-25 03:49:00,
2013-02-24 21:54:00,21.9,20.2,30.21,West,270,2.0,6.0,93,0.00,,,0.00,Weather View 32 v70,2013-02-25 03:54:00,
2013-02-24 21:59:00,21.9,20.2,30.21,West,270,1.0,5.0,93,0.00,,,0.00,Weather View 32 v70,2013-02-25 03:59:00,
2013-02-24 22:04:00,21.9,20.2,30.21,West,270,1.0,5.0,93,0.00,,,0.00,Weather View 32 v70,2013-02-25 04:04:00,
2013-02-24 22:09:00,21.9,20.2,30.21,West,270,2.0,5.0,93,0.00,,,0.00,Weather View 32 v70,2013-02-25 04:09:00,
2013-02-24 22:14:00,21.9,20.2,30.21,West,270,1.0,5.0,93,0.00,,,0.00,Weather View 32 v70,2013-02-25 04:14:00,
2013-02-24 22:19:00,21.9,20.2,30.21,West,270,2.0,4.0,93,0.12,,,0.00,Weather View 32 v70,2013-02-25 04:19:00,
2013-02-24 22:24:00,22.0,20.3,30.22,West,270,1.0,4.0,93,0.00,,,0.00,Weather View 32 v70,2013-02-25 04:24:00,
2013-02-24 22:29:00,22.0,20.3,30.21,West,270,2.0,4.0,93,0.00,,,0.00,Weather View 32 v70,2013-02-25 04:29:00,
2013-02-24 22:34:00,22.1,20.4,30.22,West,270,1.0,4.0,93,0.00,,,0.00,Weather View 32 v70,2013-02-25 04:34:00,
2013-02-24 22:39:00,22.1,20.4,30.22,West,270,2.0,4.0,93,0.00,,,0.00,Weather View 32 v70,2013-02-25 04:39:00,
2013-02-24 22:45:00,22.1,20.4,30.22,West,270,4.0,5.0,93,0.00,,,0.00,Weather View 32 v70,2013-02-25 04:45:00,
2013-02-24 22:50:00,22.2,20.5,30.22,West,270,4.0,6.0,93,0.00,,,0.00,Weather View 32 v70,2013-02-25 04:50:00,
2013-02-24 22:55:00,22.2,20.5,30.22,West,270,6.0,6.0,93,0.00,,,0.00,Weather View 32 v70,2013-02-25 04:55:00,
2013-02-24 23:00:00,22.2,20.5,30.22,West,270,3.0,6.0,93,0.00,,,0.00,Weather View 32 v70,2013-02-25 05:00:00,
2013-02-24 23:05:00,22.2,20.5,30.22,West,270,4.0,7.0,93,0.00,,,0.00,Weather View 32 v70,2013-02-25 05:05:00,
2013-02-24 23:10:00,22.2,20.5,30.22,West,270,4.0,7.0,93,0.00,,,0.00,Weather View 32 v70,2013-02-25 05:10:00,
2013-02-24 23:15:00,22.2,20.5,30.22,West,270,4.0,7.0,93,0.00,,,0.00,Weather View 32 v70,2013-02-25 05:15:00,
2013-02-24 23:20:00,22.2,20.5,30.22,West,270,4.0,7.0,93,0.00,,,0.00,Weather View 32 v70,2013-02-25 05:20:00,
2013-02-24 23:25:00,22.2,20.5,30.22,West,270,3.0,7.0,93,0.00,,,0.00,Weather View 32 v70,2013-02-25 05:25:00,
2013-02-24 23:30:00,22.2,20.5,30.22,West,270,2.0,7.0,93,0.00,,,0.00,Weather View 32 v70,2013-02-25 05:30:00,
2013-02-24 23:35:00,22.2,20.5,30.22,WSW,247,4.0,7.0,93,0.00,,,0.00,Weather View 32 v70,2013-02-25 05:35:00,
2013-02-24 23:40:00,22.2,20.5,30.22,West,270,4.0,7.0,93,0.00,,,0.00,Weather View 32 v70,2013-02-25 05:40:00,
2013-02-24 23:45:00,22.2,20.5,30.22,West,270,4.0,7.0,93,0.00,,,0.00,Weather View 32 v70,2013-02-25 05:45:00,
2013-02-24 23:50:00,22.3,20.6,30.22,West,270,4.0,7.0,93,0.00,,,0.00,Weather View 32 v70,2013-02-25 05:50:00,
2013-02-24 23:55:00,22.3,20.6,30.22,West,270,2.0,7.0,93,0.00,,,0.00,Weather View 32 v70,2013-02-25 05:55:00,